Theta_e
318 318 318 317 315 310 303 300 299 299 300 302 302 303 304 304 303 303 303 305 307 308 311 313 314 316 317 320 321 322 326 327 326 327 326 325 323 321 320 318 316 314 314 314 312
316 317 317 318 318 315 309 301 300 299 299 300 302 303 304 304 303 303 304 304 305 307 309 311 313 315 317 321 322 323 325 327 325 325 325 325 324 321 321 318 314 312 312 313 310
314 316 317 316 319 318 313 303 300 299 299 299 301 303 303 304 305 306 304 303 304 306 309 311 313 315 317 321 322 323 323 325 323 323 325 324 322 322 321 319 318 314 311 310 310
310 311 315 316 318 318 316 309 301 300 299 299 300 302 303 304 313 307 304 303 303 305 308 310 312 315 318 321 321 322 318 321 320 322 325 323 322 321 321 317 318 318 314 309 309
309 309 310 315 316 318 318 315 302 300 299 299 299 302 304 307 311 307 304 303 303 304 307 310 313 315 319 320 320 321 318 318 320 321 323 322 321 321 318 317 316 316 314 310 310
305 307 307 308 312 315 318 317 304 301 300 299 299 301 304 309 307 305 305 303 303 304 307 310 312 314 317 320 320 319 318 318 319 319 319 321 320 319 318 316 315 314 314 312 311
303 302 303 304 308 312 317 317 307 301 300 299 299 300 306 307 304 305 304 303 304 305 308 310 312 315 318 319 317 318 317 317 317 317 317 316 319 316 317 315 314 314 313 312 311
304 301 300 300 302 310 315 317 307 301 300 299 299 300 306 305 305 305 304 304 304 305 308 309 311 316 317 316 316 317 319 319 317 315 313 314 319 316 314 315 315 314 314 313 311
305 302 304 301 302 310 316 317 306 302 301 300 299 303 305 301 302 305 304 305 305 305 307 308 311 315 316 318 319 319 319 320 316 316 313 313 319 313 313 313 314 314 314 313 312
305 302 309 312 309 312 317 310 309 308 304 301 306 303 302 303 302 304 305 307 307 306 306 309 313 314 315 316 318 320 319 318 320 315 314 315 314 312 312 313 313 314 314 313 312
304 303 310 312 312 316 311 311 309 309 311 305 306 304 304 303 303 304 305 307 308 309 309 311 311 311 312 314 316 317 318 318 317 311 314 314 315 315 313 312 313 313 314 313 313
304 302 309 312 314 315 311 310 312 311 312 308 307 305 304 304 305 305 305 307 309 309 310 311 310 311 312 313 315 315 315 317 312 310 312 312 312 312 313 311 312 313 314 314 313
304 303 306 313 313 311 312 311 311 306 307 311 308 305 304 303 305 305 306 307 308 309 309 311 310 310 311 312 314 314 315 315 314 310 309 309 308 309 310 313 314 314 313 314 314
301 303 302 312 311 312 312 311 307 305 311 311 309 308 304 305 306 306 306 308 308 308 309 310 310 310 312 313 314 315 314 314 312 311 310 309 309 309 310 310 311 313 314 314 313
300 301 302 310 310 311 312 310 307 310 320 313 309 307 305 306 305 306 306 307 309 309 309 309 309 311 312 312 313 313 313 313 313 312 311 310 307 308 311 311 309 311 314 314 314
302 300 302 306 310 311 311 313 308 311 318 310 307 307 306 306 306 305 306 307 308 309 308 307 307 309 310 308 311 309 310 310 311 310 310 310 307 311 309 310 311 311 312 313 313
303 301 301 301 308 310 312 312 310 315 312 309 308 308 307 306 307 306 307 307 308 307 308 307 307 306 306 309 310 311 310 313 312 310 311 307 308 309 311 311 311 311 311 312 312
304 302 301 300 306 311 311 309 313 312 313 310 310 309 308 306 307 307 306 306 306 307 307 307 308 307 306 309 309 309 310 314 312 316 311 305 307 308 309 311 311 311 311 311 311
304 302 301 300 304 310 310 310 312 313 313 310 309 310 309 306 308 308 307 307 306 306 309 307 307 306 306 306 309 309 309 310 309 302 308 308 308 308 308 307 309 309 310 311 310
304 303 301 300 301 308 307 310 308 313 313 310 311 310 310 307 308 308 308 308 308 306 307 308 308 306 306 305 306 307 308 309 308 309 312 308 310 310 312 310 307 307 309 310 309
304 302 301 301 299 306 308 309 310 311 312 311 312 311 310 308 309 307 309 308 308 307 307 307 310 306 305 305 306 306 307 308 309 309 313 312 310 310 310 313 312 308 309 309 309
302 301 302 300 302 303 305 304 308 311 311 312 312 311 310 309 307 308 309 309 308 308 307 307 309 306 306 306 305 306 308 308 307 309 306 308 309 310 310 310 310 310 311 310 310
300 300 301 299 301 302 304 305 307 310 312 311 313 310 310 309 307 308 308 308 307 307 307 307 310 306 307 306 305 306 307 307 307 307 308 309 308 308 309 309 310 309 310 310 309
299 298 300 300 301 301 303 305 305 306 309 311 312 310 309 309 309 308 309 308 306 308 307 307 308 308 306 308 307 305 306 306 307 307 307 308 309 309 310 309 310 310 310 310 309
300 299 300 301 301 302 303 303 304 306 307 308 309 312 310 307 309 308 309 307 306 306 307 307 307 307 307 307 307 308 306 306 307 307 308 308 307 308 309 308 313 313 310 310 309
298 299 299 300 300 301 303 303 305 305 305 306 305 310 311 309 309 309 309 307 308 307 306 307 307 308 303 307 307 307 307 307 306 307 307 307 307 308 310 309 311 312 311 310 309
299 299 300 300 301 302 302 302 303 305 305 306 307 309 309 311 309 309 309 309 309 307 307 305 305 307 309 309 309 310 309 307 307 306 307 307 307 306 306 308 308 310 311 311 310
Wind_Speed
14 14 12 14 13 10 7 8 9 8 8 7 6 7 7 7 8 10 12 14 21 7 15 12 10 7 3 3 2 5 4 3 3 5 8 16 6 3 8 13 7 5 7 9 20
16 17 14 13 13 14 9 7 8 8 8 8 6 6 6 6 7 11 12 15 15 14 15 13 10 7 5 4 2 5 4 7 9 8 8 15 10 9 8 12 8 14 13 15 17
17 18 18 13 14 15 12 8 8 8 8 8 7 6 5 5 1 6 13 12 14 15 16 12 10 9 10 5 6 3 3 4 9 5 18 9 11 7 11 7 12 15 18 17 17
16 13 16 19 15 15 14 11 9 8 8 9 7 6 7 9 2 2 10 13 14 16 17 15 11 9 6 5 6 1 3 5 3 2 11 9 12 6 3 6 8 10 13 18 18
16 15 13 16 18 16 16 12 10 9 8 8 8 7 8 3 5 3 7 13 14 17 17 11 11 11 7 11 5 7 5 5 4 5 5 7 6 2 12 9 10 13 14 17 16
16 16 16 15 18 20 17 13 10 10 9 8 8 8 6 5 5 6 6 13 15 16 15 13 7 15 4 9 6 4 8 9 5 6 3 3 4 1 13 12 13 13 15 16 17
15 15 18 19 18 18 17 13 10 9 10 9 8 9 7 7 4 5 8 14 14 15 11 11 9 7 3 6 5 7 5 4 6 8 3 1 4 7 15 14 15 15 15 17 18
15 15 16 19 19 17 15 14 10 8 9 8 7 7 6 8 10 6 8 11 13 14 12 13 8 4 3 9 4 5 3 3 7 9 3 3 6 11 17 18 16 16 18 19 20
17 14 14 15 17 17 15 13 10 8 7 7 5 6 4 5 9 8 11 7 11 11 13 13 10 3 5 4 4 6 4 9 4 12 5 6 4 6 13 14 16 19 20 21 21
15 12 8 5 15 16 18 11 6 5 5 6 2 4 8 3 9 11 13 12 6 10 9 6 5 4 3 5 6 7 8 7 7 6 2 5 10 7 13 16 17 19 22 23 24
16 12 9 9 13 19 19 16 7 3 10 7 3 1 3 8 9 11 14 14 10 11 5 9 4 11 10 8 9 1 7 9 5 2 3 9 9 11 20 21 20 21 25 26 26
16 14 13 14 16 16 21 10 8 5 4 18 6 5 2 8 4 10 17 8 9 5 7 4 10 8 8 9 9 8 7 4 2 5 1 6 10 9 13 23 29 27 28 29 27
17 13 14 18 18 25 24 11 10 6 1 7 10 7 6 12 4 16 21 6 6 7 8 7 1 14 8 6 8 10 6 5 1 1 2 6 8 9 11 31 28 33 33 30 34
20 16 15 15 19 25 26 16 8 9 3 6 8 9 12 8 3 11 21 5 5 10 7 5 1 6 5 7 7 8 7 1 6 2 2 2 5 7 7 11 16 28 35 35 35
20 20 17 19 14 28 20 20 8 8 3 10 8 10 12 9 18 9 18 5 6 6 6 5 5 7 6 5 6 1 5 5 4 3 4 5 2 7 2 6 11 21 33 37 35
24 21 21 25 18 24 26 26 11 3 6 6 7 10 10 10 5 10 8 4 4 3 3 3 1 2 1 4 5 6 6 5 1 3 2 9 8 5 6 8 4 15 32 36 34
27 24 24 22 14 24 24 24 3 4 4 6 7 9 12 10 8 9 12 8 6 6 5 2 2 2 1 5 3 5 6 1 3 1 6 2 4 12 5 5 3 6 26 33 34
30 27 25 23 23 26 30 5 7 7 8 6 9 11 9 13 6 10 13 9 11 5 6 6 3 7 5 3 8 8 7 5 7 4 5 3 7 7 12 15 11 10 9 23 32
33 31 27 28 26 27 24 6 9 6 11 9 14 9 7 11 6 9 13 8 11 14 6 6 4 3 3 2 4 6 6 2 5 0 2 4 7 8 13 10 6 9 13 14 30
39 35 30 31 31 34 7 16 5 6 9 14 7 6 10 15 7 9 11 9 7 19 10 4 4 3 2 2 1 1 2 2 1 3 4 6 4 7 7 6 9 11 18 18 22
42 21 28 34 34 16 10 9 5 5 6 13 7 7 7 10 9 6 9 1 15 14 15 3 4 1 3 7 8 2 3 4 4 5 4 1 5 5 7 1 1 12 19 20 24
34 6 36 40 13 10 9 7 12 11 5 5 4 7 10 11 11 8 10 3 18 15 13 3 3 4 7 1 3 3 4 6 5 3 5 2 7 2 4 2 1 3 15 18 22
26 10 42 45 12 11 3 3 5 9 9 4 4 5 3 9 6 8 9 1 2 11 9 8 2 3 3 3 3 3 4 3 7 4 7 5 5 2 3 1 2 4 10 15 19
21 5 13 32 28 20 17 6 6 13 6 8 3 5 5 7 2 9 4 5 5 6 9 11 3 6 8 2 5 5 8 9 6 4 14 18 6 7 6 6 3 4 7 14 19
19 7 14 14 17 18 20 19 17 10 10 12 2 6 5 4 3 4 5 3 6 5 5 5 3 2 4 7 2 3 4 12 17 22 8 21 17 12 14 8 4 6 9 14 20
17 9 19 25 36 20 24 18 24 23 13 5 6 5 5 5 5 6 7 3 4 1 4 2 2 3 5 6 7 7 9 11 19 19 22 22 28 5 12 14 14 18 13 17 23
22 28 38 25 21 17 23 24 22 20 12 19 10 8 5 5 18 16 17 13 6 6 3 5 4 3 5 2 5 6 27 14 13 13 22 20 24 12 14 24 24 24 22 22 24
Wind_Direction
271 267 288 295 302 298 298 270 268 264 244 228 221 226 217 212 208 209 209 216 218 217 205 207 209 201 198 253 243 280 278 189 104 160 129 144 130 44 93 113 89 76 97 157 173
268 275 267 278 282 295 296 266 260 263 262 240 217 212 214 204 205 217 215 218 217 215 196 194 198 196 210 221 222 251 278 25 31 40 127 165 160 146 149 134 101 95 130 160 161
262 265 262 257 267 280 285 280 243 250 257 254 227 196 192 179 144 249 226 222 207 201 189 183 204 197 236 215 206 214 11 74 46 15 133 128 111 148 147 190 163 168 166 166 164
261 259 258 244 257 260 278 281 245 230 243 251 235 197 175 164 212 296 223 210 198 193 189 179 174 186 231 193 184 216 54 14 94 41 132 153 135 179 320 110 113 172 169 165 167
256 256 256 256 259 257 260 275 260 213 222 238 234 201 169 223 257 308 213 196 192 191 185 172 181 196 221 203 137 252 114 89 107 114 111 132 158 86 126 130 135 159 167 168 169
260 253 248 241 244 247 248 261 268 222 203 220 229 204 182 245 258 244 198 189 185 185 176 172 195 207 293 250 172 85 132 125 144 130 118 198 114 160 143 157 152 163 170 175 177
266 261 251 244 242 239 235 251 256 241 199 198 213 212 217 239 273 224 181 183 182 171 179 179 218 186 231 67 107 143 121 149 174 175 130 302 165 224 159 163 165 172 178 183 186
270 270 257 248 237 231 221 239 245 221 209 185 194 204 252 244 245 215 184 179 181 178 166 197 173 153 40 114 137 196 240 184 161 157 147 150 275 158 172 169 179 184 184 190 193
271 270 269 248 227 215 209 220 230 207 204 175 160 174 242 258 210 201 172 171 171 176 184 179 160 158 125 185 162 225 223 221 181 198 131 187 287 143 170 188 193 192 193 197 198
268 257 265 251 201 191 199 191 174 171 166 166 200 221 241 199 203 191 176 157 139 154 140 152 161 167 211 197 193 186 232 259 184 197 218 203 256 187 201 202 214 205 199 203 204
259 245 222 193 186 196 166 145 153 199 201 186 228 9 169 201 179 180 171 158 143 161 160 195 184 202 195 205 249 295 217 223 157 0 201 228 246 249 204 207 209 218 205 206 213
251 241 211 197 202 203 175 169 176 155 222 218 230 212 205 146 133 182 166 165 163 180 170 117 228 205 229 214 239 266 290 246 87 100 117 283 273 265 239 207 208 207 215 209 206
241 234 211 196 197 177 185 183 191 171 262 183 206 216 215 174 166 186 174 189 186 196 197 167 171 213 207 210 211 247 221 258 21 145 246 318 275 227 232 233 213 215 213 213 207
228 229 218 197 191 188 195 185 168 151 64 191 204 219 192 153 185 193 168 175 221 197 164 250 207 167 167 201 182 226 208 276 100 68 254 172 279 299 271 215 214 219 208 213 210
222 224 219 203 193 198 195 171 129 135 243 144 149 167 176 174 138 177 182 184 181 193 134 204 164 160 179 197 173 230 59 153 164 222 344 202 294 270 289 235 214 212 216 214 214
222 215 219 209 195 195 196 198 161 109 228 171 144 179 156 189 137 130 165 151 114 78 29 75 1 5 84 38 186 141 99 81 153 222 292 205 176 265 224 222 221 209 217 214 212
218 209 214 217 205 197 193 166 143 213 169 212 182 173 181 171 141 164 175 181 155 125 183 94 162 104 197 85 54 161 140 29 346 346 226 277 199 246 267 245 249 267 212 212 206
214 209 205 216 211 182 180 132 229 169 202 166 153 157 190 148 175 176 161 189 228 233 136 151 255 163 177 175 171 208 179 159 199 198 254 323 226 253 241 265 247 217 202 207 203
206 205 208 203 199 192 180 207 195 185 160 144 141 150 195 168 150 175 187 193 196 207 148 163 191 28 32 358 142 200 225 128 105 334 34 206 266 287 261 260 205 218 201 200 199
200 195 204 199 198 193 186 218 211 246 155 157 152 167 184 170 153 177 185 204 203 200 243 178 101 0 327 331 285 161 202 125 343 164 242 273 234 233 279 252 204 209 207 210 199
190 180 196 193 192 211 205 219 210 225 195 180 173 151 175 175 171 191 196 201 195 182 200 237 108 275 147 214 169 185 208 216 163 193 196 308 266 225 236 69 167 213 215 210 199
178 184 176 180 168 214 210 176 211 170 194 226 312 129 166 171 180 185 205 169 193 161 190 177 94 165 200 72 26 327 228 191 155 223 234 218 252 174 104 67 16 304 204 203 207
174 154 176 175 180 205 175 180 239 163 184 203 229 123 162 159 161 186 178 154 146 161 153 161 189 86 358 5 34 245 227 304 331 332 228 182 257 69 114 151 258 239 180 190 201
160 148 167 187 202 196 185 184 209 219 214 203 177 94 160 163 174 170 144 25 19 157 101 134 151 201 219 145 127 185 195 211 188 213 241 245 272 314 323 303 240 237 201 199 204
172 170 178 175 198 194 182 176 188 190 209 213 301 169 149 102 138 112 121 107 31 84 89 123 206 235 274 309 336 196 203 218 216 235 220 255 240 237 271 289 304 256 212 207 207
169 148 168 176 182 190 183 184 187 192 163 220 127 175 169 139 141 168 123 121 160 60 129 105 161 70 305 276 292 301 231 227 230 241 251 259 266 313 285 312 243 255 225 217 223
192 171 161 172 179 181 190 190 192 179 184 199 163 164 196 132 99 83 75 70 81 141 138 136 123 96 267 129 66 298 247 240 237 232 239 248 254 252 252 262 267 269 258 249 239